Weather in Amiens

France     49˚53′19″N   2˚17′23″E
temp.,
°C
wind,
m/s
gust,
m/s
humid.,
%
clouds,
%
prec.,
mm/h
press.,
hPa
HPBL,
m
2 december, wed
wed201:00+7˚nnw6128675 0.4 1022623
04:00+7˚n389199 0.3 1021400
07:00+7˚n359499 0.9 1020217
10:00+7˚nw349375 0.0 1019207
13:00+7˚nw488888 0.1 1018486
16:00+7˚wnw4684100 0.0 1016486
19:00+5˚sw2290100 0.1 101496
22:00+5˚ssw4791100 0.0 1012248
3 december, thu
thu301:00+6˚ssw4892100 0.3 1010360
04:00+6˚w4995100 0.3 1007459
07:00+4˚wsw2385100 0.3 100462
10:00+5˚ssw4881100 0.2 1001649
13:00+5˚ssw81289100 0.4 997895
16:00+5˚s71389100 0.2 992771
19:00+5˚sse81489100 0.5 987786
22:00+7˚s91588100 1.4 983913
4 december, fri
fri401:00+6˚s51288100 1.6 980657
04:00+4˚s3695100 0.0 978175
07:00+4˚w1197100 6.5 977299
10:00+4˚wsw5794100 1.4 977452
13:00+3˚sw81196100 5.1 979614
16:00+4˚sw3596100 1.9 981357
19:00+3˚ssw379098 2.9 984229
22:00+3˚s599296 0.1 987274
5 december, sat
sat501:00+1˚s379469 0.1 988187
04:00sse37940 0.0 990167
07:00sse37940 0.0 991167
10:00+1˚se37903 0.0 992273
13:00+4˚se46816 0.0 993494
16:00+4˚ese378491 0.0 993341
19:00+3˚ese478895 0.1 994308
22:00+1˚e389495 0.0 994199
6 december, sun
sun601:00+1˚ene489569 0.0 994204
04:00ne4795100 0.0 993205
07:00+1˚ne4994100 0.0 993259
10:00+1˚ne5993100 0.0 993388
13:00+3˚nne4789100 0.1 993428
16:00+3˚n3584100 0.0 994427
19:00+1˚nw239198 0.0 99554
22:00+1˚wsw239087 0.0 99739